| time (UTC) | temp F | wind direction | speed MPH | gust MPH | rain 1hr in | rain 24hr in | rain mn in | humidity % | barometer mb |
| 20260508035503 | 54 | 283 | 0.0 | 3.0 | 0.00 | 0.00 | 0.00 | 88 | 1016.8 |
| 20260508035002 | 54 | 244 | 0.0 | 2.0 | 0.00 | 0.00 | 0.00 | 88 | 1016.8 |
| 20260508034503 | 54 | 225 | 0.0 | 2.0 | 0.00 | 0.00 | 0.00 | 88 | 1016.8 |
| 20260508034024 | 54 | 232 | 0.0 | 3.0 | 0.00 | 0.00 | 0.00 | 87 | 1016.8 |
| 20260508033503 | 54 | 239 | 0.0 | 3.0 | 0.00 | 0.00 | 0.00 | 87 | 1016.8 |
| 20260508033003 | 55 | 315 | 0.0 | 2.0 | 0.00 | 0.00 | 0.00 | 86 | 1016.8 |
| 20260508032503 | 55 | 327 | 0.0 | 3.0 | 0.00 | 0.00 | 0.00 | 86 | 1016.8 |
| 20260508032003 | 55 | 327 | 0.0 | 3.0 | 0.00 | 0.00 | 0.00 | 86 | 1016.8 |
| 20260508031503 | 55 | 322 | 0.0 | 3.0 | 0.00 | 0.00 | 0.00 | 85 | 1016.8 |
| 20260508031003 | 55 | 321 | 0.0 | 2.0 | 0.00 | 0.00 | 0.00 | 85 | 1016.8 |
| 20260508030503 | 56 | 321 | 0.0 | 1.0 | 0.00 | 0.00 | 0.00 | 85 | 1016.8 |
| 20260508030003 | 56 | 309 | 0.0 | 3.0 | 0.00 | 0.00 | 0.00 | 84 | 1016.8 |
| 20260508025503 | 56 | 301 | 0.0 | 3.0 | 0.00 | 0.00 | 0.00 | 84 | 1016.8 |
| 20260508025003 | 56 | 295 | 0.0 | 2.0 | 0.00 | 0.00 | 0.00 | 84 | 1016.8 |
| 20260508024503 | 57 | 314 | 0.0 | 3.0 | 0.00 | 0.00 | 0.00 | 83 | 1016.8 |
| 20260508024003 | 57 | 328 | 0.0 | 3.0 | 0.00 | 0.00 | 0.00 | 83 | 1016.8 |
| 20260508023503 | 57 | 338 | 1.0 | 4.0 | 0.00 | 0.00 | 0.00 | 83 | 1016.8 |
| 20260508023003 | 57 | 337 | 0.0 | 4.0 | 0.00 | 0.00 | 0.00 | 82 | 1016.8 |
| 20260508022524 | 58 | 346 | 0.0 | 3.0 | 0.00 | 0.00 | 0.00 | 82 | 1016.8 |
| 20260508022003 | 58 | 345 | 0.0 | 4.0 | 0.00 | 0.00 | 0.00 | 82 | 1016.8 |
| 20260508021503 | 58 | 344 | 0.0 | 4.0 | 0.00 | 0.00 | 0.00 | 81 | 1016.8 |
| 20260508021002 | 58 | 343 | 1.0 | 3.0 | 0.00 | 0.00 | 0.00 | 81 | 1016.8 |
| 20260508020503 | 58 | 343 | 1.0 | 3.0 | 0.00 | 0.00 | 0.00 | 81 | 1016.8 |
| 20260508020002 | 59 | 340 | 1.0 | 8.0 | 0.00 | 0.00 | 0.00 | 80 | 1016.8 |
| 20260508015524 | 59 | 340 | 1.0 | 8.0 | 0.00 | 0.00 | 0.00 | 80 | 1016.8 |
| 20260508015003 | 59 | 339 | 1.0 | 5.0 | 0.00 | 0.00 | 0.00 | 79 | 1016.8 |
| 20260508014502 | 60 | 342 | 2.0 | 6.0 | 0.00 | 0.00 | 0.00 | 79 | 1016.8 |
| 20260508014023 | 60 | 342 | 1.0 | 6.0 | 0.00 | 0.00 | 0.00 | 78 | 1016.8 |
| 20260508013503 | 60 | 337 | 0.0 | 5.0 | 0.00 | 0.00 | 0.00 | 77 | 1016.8 |
| 20260508013003 | 61 | 341 | 1.0 | 5.0 | 0.00 | 0.00 | 0.00 | 76 | 1016.8 |
| 20260508012503 | 61 | 345 | 1.0 | 9.0 | 0.00 | 0.00 | 0.00 | 75 | 1016.8 |
| 20260508012003 | 62 | 348 | 1.0 | 9.0 | 0.00 | 0.00 | 0.00 | 74 | 1016.8 |
| 20260508011524 | 62 | 346 | 1.0 | 6.0 | 0.00 | 0.00 | 0.00 | 74 | 1017.0 |
| 20260508011002 | 63 | 336 | 1.0 | 4.0 | 0.00 | 0.00 | 0.00 | 73 | 1017.0 |
| 20260508010502 | 63 | 337 | 1.0 | 8.0 | 0.00 | 0.00 | 0.00 | 72 | 1017.0 |
| 20260508010024 | 64 | 341 | 2.0 | 8.0 | 0.00 | 0.00 | 0.00 | 72 | 1017.0 |
| 20260508005503 | 64 | 344 | 2.0 | 6.0 | 0.00 | 0.00 | 0.00 | 71 | 1017.0 |
| 20260508005003 | 65 | 349 | 1.0 | 5.0 | 0.00 | 0.00 | 0.00 | 71 | 1017.0 |
| 20260508004503 | 65 | 346 | 1.0 | 9.0 | 0.00 | 0.00 | 0.00 | 70 | 1017.0 |
| 20260508004024 | 65 | 346 | 2.0 | 9.0 | 0.00 | 0.00 | 0.00 | 70 | 1017.0 |
| 20260508003503 | 66 | 348 | 2.0 | 10.0 | 0.00 | 0.00 | 0.00 | 70 | 1017.0 |
| 20260508003002 | 66 | 351 | 2.0 | 10.0 | 0.00 | 0.00 | 0.00 | 70 | 1017.0 |
| 20260508002503 | 66 | 351 | 2.0 | 9.0 | 0.00 | 0.00 | 0.00 | 69 | 1017.0 |
| 20260508002003 | 67 | 343 | 2.0 | 9.0 | 0.00 | 0.00 | 0.00 | 69 | 1017.0 |
| 20260508001503 | 67 | 336 | 2.0 | 6.0 | 0.00 | 0.00 | 0.00 | 69 | 1017.0 |
| 20260508001002 | 67 | 337 | 2.0 | 8.0 | 0.00 | 0.00 | 0.00 | 69 | 1017.0 |
| 20260508000503 | 68 | 346 | 2.0 | 8.0 | 0.00 | 0.00 | 0.00 | 68 | 1017.0 |
| 20260508000003 | 68 | 353 | 1.0 | 5.0 | 0.00 | 0.00 | 0.00 | 67 | 1017.0 |
| 20260507235503 | 69 | 344 | 2.0 | 6.0 | 0.00 | 0.00 | 0.00 | 67 | 1017.0 |
| 20260507235003 | 69 | 344 | 2.0 | 9.0 | 0.00 | 0.00 | 0.00 | 67 | 1017.0 |
| 20260507234503 | 70 | 340 | 2.0 | 9.0 | 0.00 | 0.00 | 0.00 | 65 | 1017.0 |
| 20260507234003 | 70 | 336 | 1.0 | 6.0 | 0.00 | 0.00 | 0.00 | 65 | 1017.0 |
| 20260507233503 | 70 | 337 | 2.0 | 7.0 | 0.00 | 0.00 | 0.00 | 65 | 1017.0 |
| 20260507233003 | 71 | 328 | 2.0 | 7.0 | 0.00 | 0.00 | 0.00 | 65 | 1017.0 |
| 20260507232503 | 71 | 316 | 1.0 | 6.0 | 0.00 | 0.00 | 0.00 | 65 | 1017.0 |
| 20260507232002 | 71 | 300 | 1.0 | 6.0 | 0.00 | 0.00 | 0.00 | 64 | 1017.0 |
| 20260507231503 | 71 | 244 | 1.0 | 4.0 | 0.00 | 0.00 | 0.00 | 62 | 1017.3 |
| 20260507231003 | 72 | 288 | 1.0 | 6.0 | 0.00 | 0.00 | 0.00 | 62 | 1017.3 |
| 20260507230524 | 72 | 320 | 1.0 | 6.0 | 0.00 | 0.00 | 0.00 | 61 | 1017.3 |
| 20260507230004 | 72 | 333 | 1.0 | 5.0 | 0.00 | 0.00 | 0.00 | 62 | 1017.3 |
| 20260507225503 | 72 | 351 | 2.0 | 5.0 | 0.00 | 0.00 | 0.00 | 61 | 1017.3 |
| 20260507225003 | 72 | 351 | 2.0 | 5.0 | 0.00 | 0.00 | 0.00 | 62 | 1017.3 |
| 20260507224503 | 72 | 347 | 2.0 | 5.0 | 0.00 | 0.00 | 0.00 | 61 | 1017.3 |
| 20260507224003 | 72 | 350 | 1.0 | 6.0 | 0.00 | 0.00 | 0.00 | 61 | 1017.3 |
| 20260507223503 | 72 | 352 | 1.0 | 6.0 | 0.00 | 0.00 | 0.00 | 62 | 1017.3 |
| 20260507223023 | 72 | 332 | 1.0 | 6.0 | 0.00 | 0.00 | 0.00 | 63 | 1017.3 |
| 20260507222503 | 72 | 304 | 1.0 | 3.0 | 0.00 | 0.00 | 0.00 | 63 | 1017.3 |
| 20260507222024 | 72 | 338 | 2.0 | 6.0 | 0.00 | 0.00 | 0.00 | 62 | 1017.3 |
| 20260507221503 | 72 | 341 | 2.0 | 6.0 | 0.00 | 0.00 | 0.00 | 62 | 1017.9 |
| 20260507221024 | 71 | 345 | 2.0 | 6.0 | 0.00 | 0.00 | 0.00 | 62 | 1017.9 |
| 20260507220503 | 71 | 347 | 1.0 | 6.0 | 0.00 | 0.00 | 0.00 | 63 | 1017.9 |
| 20260507220003 | 71 | 329 | 1.0 | 4.0 | 0.00 | 0.00 | 0.00 | 64 | 1017.9 |
| 20260507215503 | 71 | 307 | 1.0 | 4.0 | 0.00 | 0.00 | 0.00 | 64 | 1017.9 |
| 20260507215003 | 71 | 335 | 1.0 | 5.0 | 0.00 | 0.00 | 0.00 | 63 | 1017.9 |
| 20260507214503 | 71 | 9 | 1.0 | 5.0 | 0.00 | 0.00 | 0.00 | 65 | 1017.9 |
| 20260507214024 | 70 | 326 | 2.0 | 5.0 | 0.00 | 0.00 | 0.00 | 65 | 1017.9 |
| 20260507213503 | 70 | 310 | 2.0 | 6.0 | 0.00 | 0.00 | 0.00 | 63 | 1017.9 |
| 20260507213003 | 70 | 326 | 1.0 | 5.0 | 0.00 | 0.00 | 0.00 | 64 | 1017.9 |
| 20260507212503 | 70 | 316 | 1.0 | 5.0 | 0.00 | 0.00 | 0.00 | 65 | 1017.9 |
| 20260507212003 | 70 | 330 | 1.0 | 4.0 | 0.00 | 0.00 | 0.00 | 64 | 1017.9 |
| 20260507211524 | 70 | 344 | 1.0 | 4.0 | 0.00 | 0.00 | 0.00 | 64 | 1018.4 |
| 20260507211003 | 69 | 341 | 1.0 | 4.0 | 0.00 | 0.00 | 0.00 | 65 | 1018.4 |
| 20260507210503 | 69 | 335 | 1.0 | 5.0 | 0.00 | 0.00 | 0.00 | 67 | 1018.4 |
| 20260507210003 | 68 | 319 | 1.0 | 6.0 | 0.00 | 0.00 | 0.00 | 67 | 1018.4 |
| 20260507205503 | 68 | 276 | 1.0 | 6.0 | 0.00 | 0.00 | 0.00 | 67 | 1018.4 |
| 20260507205003 | 68 | 268 | 2.0 | 6.0 | 0.00 | 0.00 | 0.00 | 66 | 1018.4 |
| 20260507204503 | 68 | 251 | 1.0 | 5.0 | 0.00 | 0.00 | 0.00 | 67 | 1018.4 |
| 20260507204003 | 68 | 267 | 1.0 | 5.0 | 0.00 | 0.00 | 0.00 | 67 | 1018.4 |
| 20260507203503 | 67 | 290 | 1.0 | 3.0 | 0.00 | 0.00 | 0.00 | 68 | 1018.4 |
| 20260507203003 | 67 | 224 | 2.0 | 4.0 | 0.00 | 0.00 | 0.00 | 67 | 1018.4 |
| 20260507202503 | 67 | 206 | 2.0 | 4.0 | 0.00 | 0.00 | 0.00 | 67 | 1018.4 |
| 20260507202003 | 66 | 233 | 1.0 | 4.0 | 0.00 | 0.00 | 0.00 | 68 | 1018.4 |
| 20260507201503 | 66 | 285 | 1.0 | 3.0 | 0.00 | 0.00 | 0.00 | 69 | 1018.8 |
| 20260507201003 | 66 | 240 | 1.0 | 5.0 | 0.00 | 0.00 | 0.00 | 69 | 1018.8 |
| 20260507200503 | 66 | 242 | 1.0 | 5.0 | 0.00 | 0.00 | 0.00 | 69 | 1018.8 |
| 20260507200024 | 65 | 325 | 1.0 | 4.0 | 0.00 | 0.00 | 0.00 | 70 | 1018.8 |
| 20260507195524 | 65 | 340 | 1.0 | 6.0 | 0.00 | 0.00 | 0.00 | 71 | 1018.8 |
| 20260507195003 | 65 | 325 | 1.0 | 6.0 | 0.00 | 0.00 | 0.00 | 72 | 1018.8 |
| 20260507194503 | 65 | 325 | 1.0 | 5.0 | 0.00 | 0.00 | 0.00 | 73 | 1018.8 |
| 20260507194003 | 64 | 327 | 1.0 | 4.0 | 0.00 | 0.00 | 0.00 | 73 | 1018.8 |
| 20260507193503 | 64 | 285 | 1.0 | 4.0 | 0.00 | 0.00 | 0.00 | 74 | 1018.8 |
| 20260507193003 | 64 | 300 | 1.0 | 5.0 | 0.00 | 0.00 | 0.00 | 74 | 1018.8 |
| 20260507192503 | 63 | 338 | 2.0 | 5.0 | 0.00 | 0.00 | 0.00 | 75 | 1018.8 |
| 20260507192003 | 63 | 343 | 1.0 | 4.0 | 0.00 | 0.00 | 0.00 | 77 | 1018.8 |
| 20260507191503 | 62 | 334 | 1.0 | 4.0 | 0.00 | 0.00 | 0.00 | 78 | 1019.3 |
| 20260507191003 | 62 | 326 | 1.0 | 4.0 | 0.00 | 0.00 | 0.00 | 77 | 1019.3 |
| 20260507190503 | 61 | 280 | 1.0 | 4.0 | 0.00 | 0.00 | 0.00 | 79 | 1019.3 |
| 20260507190004 | 61 | 277 | 1.0 | 3.0 | 0.00 | 0.00 | 0.00 | 78 | 1019.3 |
| 20260507185503 | 61 | 272 | 1.0 | 4.0 | 0.00 | 0.00 | 0.00 | 79 | 1019.3 |
| 20260507185024 | 60 | 231 | 2.0 | 8.0 | 0.00 | 0.00 | 0.00 | 80 | 1019.3 |
| 20260507184524 | 60 | 250 | 2.0 | 8.0 | 0.00 | 0.00 | 0.00 | 79 | 1019.3 |
| 20260507184003 | 61 | 341 | 2.0 | 6.0 | 0.00 | 0.00 | 0.00 | 81 | 1019.3 |
| 20260507183503 | 60 | 349 | 2.0 | 6.0 | 0.00 | 0.00 | 0.00 | 82 | 1019.3 |
| 20260507183003 | 60 | 4 | 1.0 | 5.0 | 0.00 | 0.00 | 0.00 | 84 | 1019.3 |
| 20260507182503 | 60 | 348 | 1.0 | 5.0 | 0.00 | 0.00 | 0.00 | 85 | 1019.3 |
| 20260507182024 | 59 | 341 | 1.0 | 8.0 | 0.00 | 0.00 | 0.00 | 87 | 1019.3 |
| 20260507181503 | 59 | 345 | 1.0 | 8.0 | 0.00 | 0.00 | 0.00 | 88 | 1018.5 |
| 20260507181003 | 59 | 354 | 1.0 | 4.0 | 0.00 | 0.00 | 0.00 | 89 | 1018.5 |
| 20260507180503 | 58 | 296 | 1.0 | 4.0 | 0.00 | 0.00 | 0.00 | 91 | 1018.5 |
| 20260507180024 | 57 | 275 | 1.0 | 4.0 | 0.00 | 0.00 | 0.00 | 91 | 1018.5 |
| 20260507175503 | 57 | 326 | 1.0 | 4.0 | 0.00 | 0.00 | 0.00 | 92 | 1018.5 |
| 20260507175003 | 57 | 342 | 0.0 | 5.0 | 0.00 | 0.00 | 0.00 | 93 | 1018.5 |
| 20260507174503 | 56 | 333 | 0.0 | 5.0 | 0.00 | 0.00 | 0.00 | 93 | 1018.5 |
| 20260507174003 | 56 | 337 | 1.0 | 4.0 | 0.00 | 0.00 | 0.00 | 94 | 1018.5 |
| 20260507173524 | 56 | 337 | 1.0 | 4.0 | 0.00 | 0.00 | 0.00 | 94 | 1018.5 |
| 20260507173003 | 55 | 338 | 1.0 | 5.0 | 0.00 | 0.00 | 0.00 | 94 | 1018.5 |
| 20260507172503 | 55 | 336 | 2.0 | 5.0 | 0.00 | 0.00 | 0.00 | 95 | 1018.5 |
| 20260507172003 | 55 | 308 | 1.0 | 4.0 | 0.00 | 0.00 | 0.00 | 95 | 1018.5 |
| 20260507171503 | 54 | 263 | 0.0 | 2.0 | 0.00 | 0.00 | 0.00 | 95 | 1018.5 |
| 20260507171003 | 54 | 308 | 1.0 | 4.0 | 0.00 | 0.00 | 0.00 | 95 | 1018.5 |
| 20260507170503 | 54 | 330 | 1.0 | 4.0 | 0.00 | 0.00 | 0.00 | 95 | 1018.5 |
| 20260507170003 | 54 | 343 | 1.0 | 4.0 | 0.00 | 0.00 | 0.00 | 95 | 1018.5 |
| 20260507165503 | 53 | 342 | 1.0 | 4.0 | 0.00 | 0.00 | 0.00 | 95 | 1018.5 |
| 20260507165003 | 53 | 337 | 1.0 | 4.0 | 0.00 | 0.00 | 0.00 | 95 | 1018.5 |
| 20260507164503 | 53 | 332 | 1.0 | 4.0 | 0.00 | 0.00 | 0.00 | 95 | 1018.5 |
| 20260507164003 | 53 | 334 | 1.0 | 4.0 | 0.00 | 0.00 | 0.00 | 95 | 1018.5 |
| 20260507163503 | 53 | 344 | 1.0 | 3.0 | 0.00 | 0.00 | 0.00 | 95 | 1018.5 |
| 20260507163003 | 53 | 343 | 0.0 | 2.0 | 0.00 | 0.00 | 0.00 | 95 | 1018.5 |
| 20260507162503 | 52 | 346 | 0.0 | 3.0 | 0.00 | 0.00 | 0.00 | 95 | 1018.5 |
| 20260507162024 | 52 | 344 | 1.0 | 4.0 | 0.00 | 0.00 | 0.00 | 95 | 1018.5 |
| 20260507161503 | 52 | 343 | 1.0 | 4.0 | 0.00 | 0.00 | 0.00 | 95 | 1018.5 |
| 20260507161003 | 52 | 340 | 1.0 | 4.0 | 0.00 | 0.00 | 0.00 | 95 | 1018.5 |
| 20260507160524 | 52 | 339 | 1.0 | 4.0 | 0.00 | 0.00 | 0.00 | 95 | 1018.5 |
| 20260507160003 | 52 | 336 | 1.0 | 3.0 | 0.00 | 0.00 | 0.00 | 95 | 1018.5 |
| 20260507155503 | 52 | 337 | 1.0 | 3.0 | 0.00 | 0.00 | 0.00 | 95 | 1018.5 |
| 20260507155003 | 52 | 340 | 1.0 | 3.0 | 0.00 | 0.00 | 0.00 | 95 | 1018.5 |
| 20260507154503 | 52 | 346 | 1.0 | 5.0 | 0.00 | 0.00 | 0.00 | 95 | 1018.5 |
| 20260507154003 | 52 | 347 | 1.0 | 5.0 | 0.00 | 0.00 | 0.00 | 95 | 1018.5 |
| 20260507153524 | 52 | 348 | 1.0 | 3.0 | 0.00 | 0.00 | 0.00 | 95 | 1018.5 |
| 20260507153003 | 52 | 346 | 0.0 | 2.0 | 0.00 | 0.00 | 0.00 | 95 | 1018.5 |
| 20260507152503 | 52 | 346 | 1.0 | 3.0 | 0.00 | 0.00 | 0.00 | 95 | 1018.5 |
| 20260507152003 | 52 | 346 | 1.0 | 4.0 | 0.00 | 0.00 | 0.00 | 95 | 1018.5 |
| 20260507151503 | 52 | 345 | 1.0 | 4.0 | 0.00 | 0.00 | 0.00 | 95 | 1018.5 |
| 20260507151024 | 52 | 344 | 0.0 | 2.0 | 0.00 | 0.00 | 0.00 | 95 | 1018.5 |
| 20260507150503 | 51 | 344 | 0.0 | 2.0 | 0.00 | 0.00 | 0.00 | 95 | 1018.5 |
| 20260507150003 | 51 | 344 | 1.0 | 4.0 | 0.00 | 0.00 | 0.00 | 95 | 1018.5 |
| 20260507145524 | 51 | 344 | 1.0 | 4.0 | 0.00 | 0.00 | 0.00 | 95 | 1018.5 |
| 20260507145003 | 51 | 344 | 1.0 | 4.0 | 0.00 | 0.00 | 0.00 | 95 | 1018.5 |
| 20260507144503 | 51 | 344 | 0.0 | 2.0 | 0.00 | 0.00 | 0.00 | 95 | 1018.5 |
| 20260507144003 | 51 | 344 | 0.0 | 2.0 | 0.00 | 0.00 | 0.00 | 95 | 1018.5 |
| 20260507143503 | 51 | 344 | 0.0 | 2.0 | 0.00 | 0.00 | 0.00 | 95 | 1018.5 |
| 20260507143025 | 51 | 344 | 0.0 | 2.0 | 0.00 | 0.00 | 0.00 | 95 | 1018.5 |
| 20260507142503 | 51 | 344 | 0.0 | 3.0 | 0.00 | 0.00 | 0.00 | 95 | 1018.5 |
| 20260507142003 | 51 | 346 | 1.0 | 5.0 | 0.00 | 0.00 | 0.00 | 95 | 1018.5 |
| 20260507141503 | 51 | 346 | 1.0 | 5.0 | 0.00 | 0.00 | 0.00 | 95 | 1018.5 |
| 20260507141003 | 51 | 350 | 0.0 | 1.0 | 0.00 | 0.00 | 0.00 | 95 | 1018.5 |
| 20260507140524 | 51 | 350 | 0.0 | 1.0 | 0.00 | 0.00 | 0.00 | 95 | 1018.5 |
| 20260507140003 | 51 | 351 | 0.0 | 1.0 | 0.00 | 0.00 | 0.00 | 95 | 1018.5 |
| 20260507135503 | 51 | 351 | 0.0 | 3.0 | 0.00 | 0.00 | 0.00 | 95 | 1018.5 |
| 20260507135004 | 51 | 351 | 0.0 | 3.0 | 0.00 | 0.00 | 0.00 | 95 | 1018.5 |
| 20260507134524 | 51 | 350 | 0.0 | 2.0 | 0.00 | 0.00 | 0.00 | 95 | 1018.5 |
| 20260507134003 | 51 | 353 | 0.0 | 4.0 | 0.00 | 0.00 | 0.00 | 95 | 1018.5 |
| 20260507133503 | 51 | 346 | 0.0 | 4.0 | 0.00 | 0.00 | 0.00 | 95 | 1018.5 |
| 20260507133003 | 51 | 318 | 0.0 | 3.0 | 0.00 | 0.00 | 0.00 | 95 | 1018.5 |
| 20260507132524 | 51 | 312 | 0.0 | 2.0 | 0.00 | 0.00 | 0.00 | 95 | 1018.5 |
| 20260507132003 | 51 | 315 | 0.0 | 1.0 | 0.00 | 0.00 | 0.00 | 95 | 1018.5 |
| 20260507131503 | 51 | 315 | 0.0 | 1.0 | 0.00 | 0.00 | 0.00 | 95 | 1018.5 |
| 20260507131003 | 51 | 315 | 0.0 | 1.0 | 0.00 | 0.00 | 0.00 | 95 | 1018.5 |
| 20260507130503 | 51 | 317 | 0.0 | 2.0 | 0.00 | 0.00 | 0.00 | 95 | 1018.5 |
| 20260507130003 | 51 | 319 | 0.0 | 2.0 | 0.00 | 0.00 | 0.00 | 95 | 1018.5 |
| 20260507125524 | 51 | 321 | 0.0 | 2.0 | 0.00 | 0.00 | 0.00 | 94 | 1018.5 |
| 20260507125003 | 51 | 320 | 0.0 | 3.0 | 0.00 | 0.00 | 0.00 | 94 | 1018.5 |
| 20260507124503 | 51 | 319 | 0.0 | 3.0 | 0.00 | 0.00 | 0.00 | 94 | 1018.5 |
| 20260507124003 | 52 | 0 | 0.0 | 0.0 | 0.00 | 0.00 | 0.00 | 94 | 1018.5 |
| 20260507123503 | 51 | 0 | 0.0 | 0.0 | 0.00 | 0.00 | 0.00 | 94 | 1018.5 |
| 20260507123003 | 51 | 0 | 0.0 | 0.0 | 0.00 | 0.00 | 0.00 | 94 | 1018.5 |
| 20260507122503 | 51 | 0 | 0.0 | 0.0 | 0.00 | 0.00 | 0.00 | 94 | 1018.5 |
| 20260507122024 | 51 | 0 | 0.0 | 0.0 | 0.00 | 0.00 | 0.00 | 94 | 1018.5 |
| 20260507121503 | 52 | 0 | 0.0 | 0.0 | 0.00 | 0.00 | 0.00 | 94 | 1018.5 |
| 20260507121003 | 52 | 0 | 0.0 | 0.0 | 0.00 | 0.00 | 0.00 | 94 | 1018.5 |
| 20260507120503 | 51 | 0 | 0.0 | 0.0 | 0.00 | 0.00 | 0.00 | 94 | 1018.5 |
| 20260507120002 | 51 | 277 | 0.0 | 2.0 | 0.00 | 0.00 | 0.00 | 94 | 1018.5 |
| 20260507115501 | 51 | 294 | 0.0 | 2.0 | 0.00 | 0.00 | 0.00 | 94 | 1018.5 |
| 20260507115002 | 51 | 305 | 0.0 | 2.0 | 0.00 | 0.00 | 0.00 | 94 | 1018.5 |
| 20260507114502 | 51 | 307 | 0.0 | 2.0 | 0.00 | 0.00 | 0.00 | 94 | 1018.5 |
| 20260507114022 | 52 | 303 | 0.0 | 2.0 | 0.00 | 0.00 | 0.00 | 94 | 1018.5 |
| 20260507113523 | 52 | 296 | 0.0 | 2.0 | 0.00 | 0.00 | 0.00 | 94 | 1018.5 |
| 20260507113002 | 52 | 240 | 0.0 | 2.0 | 0.00 | 0.00 | 0.00 | 94 | 1018.5 |
| 20260507112501 | 52 | 240 | 0.0 | 2.0 | 0.00 | 0.00 | 0.00 | 94 | 1018.5 |
| 20260507112002 | 52 | 248 | 0.0 | 1.0 | 0.00 | 0.00 | 0.00 | 94 | 1018.5 |
| 20260507111502 | 52 | 0 | 0.0 | 0.0 | 0.00 | 0.00 | 0.00 | 94 | 1018.5 |
| 20260507111002 | 52 | 0 | 0.0 | 0.0 | 0.00 | 0.00 | 0.00 | 94 | 1018.5 |
| 20260507110502 | 52 | 248 | 0.0 | 1.0 | 0.00 | 0.00 | 0.00 | 94 | 1018.5 |
| 20260507110023 | 52 | 248 | 0.0 | 1.0 | 0.00 | 0.00 | 0.00 | 94 | 1019.2 |
| 20260507105501 | 52 | 264 | 0.0 | 2.0 | 0.00 | 0.00 | 0.00 | 94 | 1019.2 |
| 20260507105001 | 52 | 270 | 0.0 | 2.0 | 0.00 | 0.00 | 0.00 | 94 | 1019.2 |
| 20260507104501 | 52 | 223 | 0.0 | 2.0 | 0.00 | 0.00 | 0.00 | 94 | 1019.2 |
| 20260507104001 | 52 | 223 | 0.0 | 2.0 | 0.00 | 0.00 | 0.00 | 94 | 1019.2 |
| 20260507103501 | 52 | 223 | 0.0 | 2.0 | 0.00 | 0.00 | 0.00 | 94 | 1019.2 |
| 20260507103022 | 52 | 223 | 0.0 | 3.0 | 0.00 | 0.00 | 0.00 | 94 | 1019.2 |
| 20260507102502 | 52 | 223 | 0.0 | 3.0 | 0.00 | 0.00 | 0.00 | 94 | 1019.2 |
| 20260507102001 | 53 | 222 | 0.0 | 1.0 | 0.00 | 0.00 | 0.00 | 94 | 1019.2 |
| 20260507101501 | 53 | 222 | 0.0 | 2.0 | 0.00 | 0.00 | 0.00 | 94 | 1019.2 |
| 20260507101002 | 53 | 222 | 0.0 | 2.0 | 0.00 | 0.00 | 0.00 | 94 | 1019.2 |
| 20260507100501 | 53 | 216 | 0.0 | 2.0 | 0.00 | 0.00 | 0.00 | 94 | 1019.2 |
| 20260507100002 | 53 | 216 | 0.0 | 2.0 | 0.00 | 0.00 | 0.00 | 93 | 1019.2 |
| 20260507095501 | 53 | 216 | 0.0 | 2.0 | 0.00 | 0.00 | 0.00 | 94 | 1019.2 |
| 20260507095002 | 53 | 216 | 0.0 | 2.0 | 0.00 | 0.00 | 0.00 | 93 | 1019.2 |
| 20260507094501 | 53 | 216 | 0.0 | 3.0 | 0.00 | 0.00 | 0.00 | 94 | 1019.2 |
| 20260507094022 | 53 | 216 | 0.0 | 3.0 | 0.00 | 0.00 | 0.00 | 94 | 1019.2 |
| 20260507093501 | 53 | 216 | 0.0 | 2.0 | 0.00 | 0.00 | 0.00 | 94 | 1019.2 |
| 20260507093002 | 53 | 216 | 0.0 | 2.0 | 0.00 | 0.00 | 0.00 | 93 | 1019.2 |
| 20260507092502 | 53 | 0 | 0.0 | 0.0 | 0.00 | 0.00 | 0.00 | 93 | 1019.2 |
| 20260507092022 | 53 | 216 | 0.0 | 2.0 | 0.00 | 0.00 | 0.00 | 93 | 1019.2 |
| 20260507091502 | 53 | 216 | 0.0 | 2.0 | 0.00 | 0.00 | 0.00 | 93 | 1019.2 |
| 20260507091002 | 53 | 231 | 0.0 | 2.0 | 0.00 | 0.00 | 0.00 | 93 | 1019.2 |
| 20260507090502 | 53 | 240 | 0.0 | 2.0 | 0.00 | 0.00 | 0.00 | 93 | 1019.2 |
| 20260507090002 | 53 | 245 | 0.0 | 2.0 | 0.00 | 0.00 | 0.00 | 93 | 1019.2 |
| 20260507085523 | 53 | 236 | 0.0 | 2.0 | 0.00 | 0.00 | 0.00 | 93 | 1019.2 |
| 20260507085002 | 53 | 236 | 0.0 | 1.0 | 0.00 | 0.00 | 0.00 | 93 | 1019.2 |
| 20260507084502 | 53 | 237 | 0.0 | 1.0 | 0.00 | 0.00 | 0.00 | 93 | 1019.2 |
| 20260507084001 | 53 | 237 | 0.0 | 3.0 | 0.00 | 0.00 | 0.00 | 93 | 1019.2 |
| 20260507083501 | 53 | 238 | 0.0 | 4.0 | 0.00 | 0.00 | 0.00 | 93 | 1019.2 |
| 20260507083023 | 53 | 238 | 0.0 | 4.0 | 0.00 | 0.00 | 0.00 | 93 | 1019.2 |
| 20260507082501 | 53 | 236 | 0.0 | 3.0 | 0.00 | 0.00 | 0.00 | 93 | 1019.2 |
| 20260507082002 | 53 | 237 | 0.0 | 3.0 | 0.00 | 0.00 | 0.00 | 93 | 1019.2 |
| 20260507081502 | 53 | 241 | 0.0 | 2.0 | 0.00 | 0.00 | 0.00 | 93 | 1019.2 |
| 20260507081023 | 53 | 244 | 0.0 | 2.0 | 0.00 | 0.00 | 0.00 | 93 | 1019.2 |
| 20260507080502 | 53 | 244 | 0.0 | 2.0 | 0.00 | 0.00 | 0.00 | 93 | 1019.2 |
| 20260507080002 | 53 | 242 | 1.0 | 3.0 | 0.00 | 0.00 | 0.00 | 93 | 1019.2 |
| 20260507075501 | 53 | 241 | 0.0 | 3.0 | 0.00 | 0.00 | 0.00 | 93 | 1019.2 |
| 20260507075001 | 53 | 230 | 0.0 | 2.0 | 0.00 | 0.00 | 0.00 | 93 | 1019.2 |
| 20260507074502 | 53 | 232 | 0.0 | 3.0 | 0.00 | 0.00 | 0.00 | 92 | 1019.2 |
| 20260507074002 | 53 | 241 | 0.0 | 3.0 | 0.00 | 0.00 | 0.00 | 92 | 1019.2 |
| 20260507073502 | 53 | 329 | 0.0 | 1.0 | 0.00 | 0.00 | 0.00 | 92 | 1019.2 |
| 20260507073002 | 53 | 329 | 0.0 | 1.0 | 0.00 | 0.00 | 0.00 | 92 | 1019.2 |
| 20260507072502 | 53 | 330 | 0.0 | 2.0 | 0.00 | 0.00 | 0.00 | 92 | 1019.2 |
| 20260507072002 | 53 | 330 | 0.0 | 2.0 | 0.00 | 0.00 | 0.00 | 92 | 1019.2 |
| 20260507071523 | 53 | 331 | 0.0 | 1.0 | 0.00 | 0.00 | 0.00 | 92 | 1019.2 |
| 20260507071002 | 53 | 331 | 0.0 | 1.0 | 0.00 | 0.00 | 0.00 | 92 | 1019.2 |
| 20260507070503 | 53 | 331 | 0.0 | 2.0 | 0.00 | 0.00 | 0.00 | 92 | 1019.2 |
| 20260507070008 | 53 | 328 | 0.0 | 3.0 | 0.00 | 0.00 | 0.00 | 92 | 1019.2 |
| 20260507065502 | 53 | 325 | 0.0 | 3.0 | 0.00 | 0.00 | 0.00 | 92 | 1019.2 |
| 20260507065023 | 54 | 311 | 0.0 | 3.0 | 0.00 | 0.00 | 0.00 | 92 | 1019.2 |
| 20260507064501 | 54 | 302 | 0.0 | 3.0 | 0.00 | 0.00 | 0.00 | 92 | 1019.2 |
| 20260507064002 | 54 | 285 | 0.0 | 2.0 | 0.00 | 0.00 | 0.00 | 92 | 1019.2 |
| 20260507063502 | 54 | 328 | 0.0 | 3.0 | 0.00 | 0.00 | 0.00 | 92 | 1019.2 |
| 20260507063002 | 54 | 332 | 1.0 | 5.0 | 0.00 | 0.00 | 0.00 | 91 | 1019.2 |
| 20260507062502 | 54 | 325 | 0.0 | 5.0 | 0.00 | 0.00 | 0.00 | 91 | 1019.2 |
| 20260507062002 | 54 | 295 | 0.0 | 3.0 | 0.00 | 0.00 | 0.00 | 91 | 1019.2 |
| 20260507061502 | 54 | 267 | 0.0 | 1.0 | 0.00 | 0.00 | 0.00 | 91 | 1019.2 |
| 20260507061002 | 54 | 259 | 0.0 | 1.0 | 0.00 | 0.00 | 0.00 | 91 | 1019.2 |
| 20260507060502 | 54 | 259 | 0.0 | 1.0 | 0.00 | 0.00 | 0.00 | 91 | 1019.2 |
| 20260507060002 | 54 | 259 | 0.0 | 1.0 | 0.00 | 0.00 | 0.00 | 91 | 1019.2 |
| 20260507055502 | 54 | 259 | 0.0 | 1.0 | 0.00 | 0.00 | 0.00 | 91 | 1019.2 |
| 20260507055002 | 54 | 259 | 0.0 | 1.0 | 0.00 | 0.00 | 0.00 | 91 | 1019.2 |
| 20260507054502 | 54 | 261 | 0.0 | 1.0 | 0.00 | 0.00 | 0.00 | 91 | 1019.2 |
| 20260507054023 | 54 | 247 | 0.0 | 3.0 | 0.00 | 0.00 | 0.00 | 91 | 1019.2 |
| 20260507053502 | 54 | 237 | 0.0 | 3.0 | 0.00 | 0.00 | 0.00 | 91 | 1019.2 |
| 20260507053001 | 54 | 221 | 0.0 | 3.0 | 0.00 | 0.00 | 0.00 | 90 | 1019.2 |
| 20260507052502 | 54 | 221 | 0.0 | 3.0 | 0.00 | 0.00 | 0.00 | 90 | 1019.2 |
| 20260507052002 | 54 | 231 | 1.0 | 5.0 | 0.00 | 0.00 | 0.00 | 90 | 1019.2 |
| 20260507051501 | 54 | 227 | 1.0 | 5.0 | 0.00 | 0.00 | 0.00 | 90 | 1018.5 |
| 20260507051002 | 54 | 217 | 1.0 | 4.0 | 0.00 | 0.00 | 0.00 | 90 | 1018.5 |
| 20260507050502 | 55 | 209 | 1.0 | 3.0 | 0.00 | 0.00 | 0.00 | 90 | 1018.5 |
| 20260507050023 | 55 | 197 | 1.0 | 4.0 | 0.00 | 0.00 | 0.00 | 89 | 1018.5 |
| 20260507045502 | 55 | 199 | 0.0 | 4.0 | 0.00 | 0.00 | 0.00 | 89 | 1018.5 |
| 20260507045002 | 55 | 197 | 0.0 | 3.0 | 0.00 | 0.00 | 0.00 | 89 | 1018.5 |
| 20260507044523 | 55 | 197 | 1.0 | 3.0 | 0.00 | 0.00 | 0.00 | 89 | 1018.5 |
| 20260507044002 | 55 | 198 | 1.0 | 4.0 | 0.00 | 0.00 | 0.00 | 89 | 1018.5 |
| 20260507043502 | 55 | 199 | 1.0 | 4.0 | 0.00 | 0.00 | 0.00 | 88 | 1018.5 |
| 20260507043002 | 55 | 202 | 1.0 | 3.0 | 0.00 | 0.00 | 0.00 | 88 | 1018.5 |
| 20260507042502 | 55 | 204 | 0.0 | 3.0 | 0.00 | 0.00 | 0.00 | 88 | 1018.5 |
| 20260507042002 | 55 | 225 | 1.0 | 4.0 | 0.00 | 0.00 | 0.00 | 88 | 1018.5 |
| 20260507041523 | 55 | 250 | 1.0 | 4.0 | 0.00 | 0.00 | 0.00 | 87 | 1018.5 |
| 20260507041002 | 55 | 299 | 0.0 | 2.0 | 0.00 | 0.00 | 0.00 | 87 | 1018.5 |
| 20260507040502 | 55 | 303 | 0.0 | 2.0 | 0.00 | 0.00 | 0.00 | 87 | 1018.5 |
| 20260507040002 | 56 | 304 | 0.0 | 2.0 | 0.00 | 0.00 | 0.00 | 87 | 1018.5 |